Location: Kalberh�ni
(46.4610°N, 7.2453°E)
Time: 02:34:26
(UTC+00:00)

Cosmos 2219 Rocket - Pass Details

Date: 20 June 2021
Orbit: 829 x 846 km, 71.0° (Epoch: 25 July)

Event Time Altitude Azimuth Distance (km) Brightness Sun altitude
Exits shadow 20:14:51 - 175° (S) 3,422 4.9 -7.0°
Rises 20:14:56 0° 175° (S) 3,391 4.9 -7.0°
Reaches altitude 10° 20:17:35 10° 166° (SSE) 2,461 4.1 -7.4°
Maximum altitude 20:22:32 32° 105° (ESE) 1,417 3.0 -7.9°
Drops below altitude 10° 20:27:29 10° 44° (NE) 2,473 4.7 -8.5°
Sets 20:30:09 0° 35° (NE) 3,411 5.5 -8.8°
